This is the latest recevied weather packets stored in our database for station/object 9M2GDD-1. If no packets are shown the sender has not sent any weather packets the latest 10 day(s).
| Time | Temp. | Humidity | Pressure | Rain* | Wind** | Luminosity | Snow |
|---|---|---|---|---|---|---|---|
| 1787709203 | 27.78° C | 81% | 1017.2 hPa | - | - | - | - |
| 1787708303 | 28.33° C | 78% | 1017.1 hPa | - | - | - | - |
| 1787707402 | 28.33° C | 78% | 1017.1 hPa | - | - | - | - |
| 1787706502 | 28.33° C | 77% | 1017 hPa | - | - | - | - |
| 1787705602 | 28.33° C | 78% | 1016.7 hPa | - | - | - | - |
| 1787704702 | 27.78° C | 79% | 1016.6 hPa | - | - | - | - |
| 1787703802 | 27.78° C | 77% | 1016.6 hPa | - | - | - | - |
| 1787702902 | 27.78° C | 78% | 1016.5 hPa | - | - | - | - |
| 1787702002 | 27.78° C | 81% | 1016.1 hPa | - | - | - | - |
| 1787701102 | 27.78° C | 83% | 1015.7 hPa | - | - | - | - |
| 1787700202 | 27.22° C | 84% | 1015.7 hPa | - | - | - | - |
| 1787699302 | 27.22° C | 83% | 1015.4 hPa | - | - | - | - |
| 1787698402 | 27.78° C | 84% | 1015.5 hPa | - | - | - | - |
| 1787697501 | 27.22° C | 83% | 1015.4 hPa | - | - | - | - |
| 1787696601 | 27.78° C | 81% | 1015.3 hPa | - | - | - | - |
| 1787695701 | 28.33° C | 79% | 1014.9 hPa | - | - | - | - |
| 1787694801 | 28.33° C | 80% | 1014.3 hPa | - | - | - | - |
| 1787693901 | 28.33° C | 80% | 1014.2 hPa | - | - | - | - |
| 1787693001 | 28.33° C | 84% | 1014 hPa | - | - | - | - |
| 1787692101 | 28.33° C | 82% | 1014 hPa | - | - | - | - |
| 1787691201 | 28.33° C | 82% | 1014 hPa | - | - | - | - |
| 1787690301 | 28.89° C | 80% | 1013.8 hPa | - | - | - | - |
| 1787689401 | 28.89° C | 84% | 1013.6 hPa | - | - | - | - |
| 1787688501 | 28.89° C | 84% | 1013.4 hPa | - | - | - | - |
| 1787687600 | 28.89° C | 82% | 1013.9 hPa | - | - | - | - |
* Rain since midnight (hover to see other rain measurements)
** Current wind speed in m/s (hover to see current wind gust speed)